Flag for U.S.A. Weather past 2 weeks in San Bernardino, California, U.S.A.

Now
50 °F

Clear.


Feels Like: 50 °F
Forecast: 49 / 75 °F
Wind: No wind

Location: Riverside Municipal Airport

Current Time: Apr 26, 2015 at 7:01:32 AM

Latest Report: Apr 26, 2015 at 5:53 AM


Visibility: 10 mi

Pressure: 29.93 "Hg

Humidity: 89%

Dew point: 47 °F

Location of San BernardinoLocation

Historic Weather in San Bernardino — Graph

°F

San Bernardino temperature yesterday

Maximum temperature yesterday: 64 °F (at 11:53 AM)
Minimum temperature yesterday: 55 °F (at 11:53 PM)
Average temperature yesterday: 58 °F

Past Weeks' High & Low Weather Summary

 TemperatureHumidityPressure
High85 °F (Apr 17, 1:53 PM)93% (Apr 26, 2:53 AM)30.07 "Hg (Apr 26, 2:53 AM)
Low50 °F (Apr 26, 4:53 AM)5% (Apr 15, 5:53 PM)29.76 "Hg (Apr 20, 3:53 PM)
Average64 °F51%29.91 "Hg
* Reported Apr 11 5:53 AM — Apr 26 5:53 AM, San Bernardino, Weather by CustomWeather, © 2015

Note: Actual official high and low records may vary slightly from our data, if they occured in-between our weather recording intervals... More about our weather records

Advertising

San Bernardino weather history for previous 24 hours

 ConditionsComfort  
Time TempWeatherWind HumidityBarometerVisibility
5:53 AM
Sun, Apr 26
50 °FClear.No wind89%29.93 "Hg10 mi
4:53 AM50 °FFog.No wind93%29.91 "Hg6 mi
3:53 AM52 °FClear.No wind89%29.90 "Hg10 mi
2:53 AM52 °FClear.3 mph93%29.89 "Hg9 mi
1:53 AM53 °FPassing clouds.No wind89%29.89 "Hg10 mi
12:53 AM52 °FPassing clouds.5 mph89%29.89 "Hg10 mi
12:03 AM55 °FPassing clouds.No wind87%29.93 "Hg10 mi
11:53 PM
Sat, Apr 25
55 °FPassing clouds.No wind87%29.89 "Hg10 mi
10:53 PM56 °FPassing clouds.5 mph84%29.88 "Hg10 mi
9:53 PM57 °FOvercast.3 mph81%29.88 "Hg10 mi
8:53 PM57 °FPartly cloudy.5 mph81%29.86 "Hg10 mi
7:53 PM58 °FMostly cloudy.18 mph81%29.84 "Hg10 mi
6:53 PM58 °FMostly cloudy.15 mph87%29.81 "Hg10 mi
5:53 PM58 °FLight rain. Fog.17 mph90%29.82 "Hg5 mi
4:53 PM58 °FLight rain. More clouds than sun.15 mph90%29.84 "Hg9 mi
3:59 PM57 °FLight rain. Fog.7 mph90%29.89 "Hg2 mi
2:53 PM60 °FLight rain. Mostly cloudy.15 mph69%29.90 "Hg8 mi
1:53 PM63 °FMostly cloudy.20 mph54%29.92 "Hg10 mi
12:53 PM63 °FMostly cloudy.12 mph56%29.91 "Hg10 mi
11:53 AM64 °FMostly cloudy.12 mph54%29.93 "Hg10 mi
10:53 AM63 °FCloudy.7 mph60%29.95 "Hg10 mi
9:53 AM59 °FOvercast.6 mph72%29.95 "Hg10 mi
8:53 AM58 °FMostly cloudy.5 mph75%29.95 "Hg10 mi
7:53 AM56 °FOvercast.3 mph81%29.94 "Hg10 mi
Weather by CustomWeather, © 2015

See weather overviewHow to use our weather pages